Regional Weather Roundup
Issued by NWS

Home | Current Version | Previous Version | Graphics & Text | Print | Product List | Glossary On
Versions: 1 2 3 4 5 6 7 8 9 10 11 12 13 14 15 16 17 18 19 20 21 22 23 24 25 26 27 28 29 30 31 32 33 34 35 36 37 38 39 40 41 42 43 44 45 46 47 48 49 50
000
ASUS43 KBIS 222031
RWRND
NORTH DAKOTA REGIONAL WEATHER ROUNDUP
NATIONAL WEATHER SERVICE EASTERN NORTH DAKOTA/GRAND FORKS ND
200 PM CST THU FEB 22 2018

  NOTE: "FAIR" INDICATES FEW OR NO CLOUDS BELOW 12,000 FEET WITH NO
  SIGNIFICANT WEATHER AND/OR OBSTRUCTIONS TO VISIBILITY.

NDZ001>003-009>011-017-222100-
...NORTHWEST NORTH DAKOTA...

CITY           SKY/WX    TMP DP  RH WIND       PRES   REMARKS
WILLISTON      FAIR       8  -2  63 W6        30.25F WCI  -2
MINOT          FAIR      19   3  49 N6        30.22F WCI  11
MINOT AFB      FAIR      16   2  54 SW3       30.22F
$$

NDZ018>021-031>035-040>046-222100-
...SOUTHWEST NORTH DAKOTA...

CITY           SKY/WX    TMP DP  RH WIND       PRES   REMARKS
BISMARCK       FAIR      14   5  67 CALM      30.26F
DICKINSON      FAIR      16   2  54 NW3       30.14F
GARRISON         N/A     10  -2  58 CALM      30.22F
HETTINGER      FAIR      14   3  61 CALM      30.15F
$$

NDZ004>008-012>016-024-026-027-054-222100-
...NORTHEAST NORTH DAKOTA...

CITY           SKY/WX    TMP DP  RH WIND       PRES   REMARKS
GRAND FORKS    FAIR      15   8  73 S16       30.38F WCI  -1
GRAND FORKS AF SUNNY     17   8  66 S10       30.36F WCI   5
DEVILS LAKE    FAIR      12   5  73 S7        30.29F WCI   1
$$

NDZ022-023-025-028>030-036>039-047>053-222100-
...SOUTHEAST NORTH DAKOTA...

CITY           SKY/WX    TMP DP  RH WIND       PRES   REMARKS
JAMESTOWN      PTSUNNY   21  13  71 SE9       30.29F WCI  11
FARGO          FAIR      22  14  71 S13       30.40F WCI  10
WAHPETON       CLOUDY    23  14  68 SE9       30.40F WCI  13
$$



USA.gov is the U.S. government's official web portal to all federal, state and local government web resources and services.